| time (UTC) | temp F | wind direction | speed MPH | gust MPH | rain 1hr in | rain 24hr in | rain mn in | humidity % | barometer mb |
| 20260502213037 | 41 | 360 | 7.0 | 16.0 | 0.00 | 0.00 | 0.00 | 56 | 1011.3 |
| 20260502212538 | 41 | 360 | 11.0 | 17.0 | 0.00 | 0.00 | 0.00 | 56 | 1011.3 |
| 20260502212038 | 41 | 360 | 8.0 | 17.0 | 0.00 | 0.00 | 0.00 | 56 | 1011.3 |
| 20260502211545 | 41 | 360 | 9.0 | 17.0 | 0.00 | 0.00 | 0.00 | 57 | 1011.3 |
| 20260502211037 | 42 | 360 | 8.0 | 14.0 | 0.00 | 0.00 | 0.00 | 57 | 1011.2 |
| 20260502210538 | 42 | 360 | 8.0 | 14.0 | 0.00 | 0.00 | 0.00 | 57 | 1011.3 |
| 20260502210040 | 42 | 360 | 10.0 | 13.0 | 0.00 | 0.00 | 0.00 | 57 | 1011.2 |
| 20260502205536 | 42 | 360 | 6.0 | 12.0 | 0.00 | 0.00 | 0.00 | 58 | 1011.3 |
| 20260502205036 | 42 | 360 | 8.0 | 12.0 | 0.00 | 0.00 | 0.00 | 57 | 1011.2 |
| 20260502204537 | 42 | 360 | 6.0 | 11.0 | 0.00 | 0.00 | 0.00 | 55 | 1011.3 |
| 20260502204039 | 42 | 360 | 6.0 | 10.0 | 0.00 | 0.00 | 0.00 | 56 | 1011.3 |
| 20260502203537 | 42 | 360 | 4.0 | 13.0 | 0.00 | 0.00 | 0.00 | 55 | 1011.3 |
| 20260502203036 | 42 | 360 | 7.0 | 13.0 | 0.00 | 0.00 | 0.00 | 56 | 1011.3 |
| 20260502202536 | 42 | 360 | 3.0 | 13.0 | 0.00 | 0.00 | 0.00 | 51 | 1011.4 |
| 20260502202036 | 42 | 360 | 8.0 | 18.0 | 0.00 | 0.00 | 0.00 | 53 | 1011.3 |
| 20260502201536 | 42 | 360 | 11.0 | 18.0 | 0.00 | 0.00 | 0.00 | 53 | 1011.4 |
| 20260502201038 | 42 | 360 | 6.0 | 18.0 | 0.00 | 0.00 | 0.00 | 52 | 1011.4 |
| 20260502200535 | 42 | 360 | 11.0 | 18.0 | 0.00 | 0.00 | 0.00 | 51 | 1011.5 |
| 20260502200035 | 43 | 360 | 4.0 | 14.0 | 0.00 | 0.00 | 0.00 | 52 | 1011.5 |
| 20260502195534 | 43 | 360 | 8.0 | 14.0 | 0.00 | 0.00 | 0.00 | 52 | 1011.5 |
| 20260502195035 | 43 | 360 | 7.0 | 12.0 | 0.00 | 0.00 | 0.00 | 53 | 1011.5 |
| 20260502194537 | 43 | 360 | 6.0 | 14.0 | 0.00 | 0.00 | 0.00 | 56 | 1011.7 |
| 20260502194035 | 43 | 360 | 8.0 | 15.0 | 0.00 | 0.00 | 0.00 | 56 | 1011.8 |
| 20260502193545 | 44 | 360 | 6.0 | 15.0 | 0.00 | 0.00 | 0.00 | 54 | 1011.7 |
| 20260502193035 | 45 | 360 | 9.0 | 13.0 | 0.00 | 0.00 | 0.00 | 53 | 1011.7 |
| 20260502192533 | 44 | 360 | 2.0 | 14.0 | 0.00 | 0.00 | 0.00 | 52 | 1011.8 |
| 20260502192032 | 43 | 360 | 6.0 | 15.0 | 0.00 | 0.00 | 0.00 | 52 | 1011.7 |
| 20260502191532 | 43 | 360 | 7.0 | 15.0 | 0.00 | 0.00 | 0.00 | 54 | 1011.7 |
| 20260502191033 | 43 | 360 | 9.0 | 15.0 | 0.00 | 0.00 | 0.00 | 53 | 1011.8 |
| 20260502190532 | 43 | 360 | 5.0 | 13.0 | 0.00 | 0.00 | 0.00 | 58 | 1011.9 |
| 20260502190038 | 42 | 360 | 7.0 | 15.0 | 0.00 | 0.00 | 0.00 | 53 | 1011.8 |
| 20260502185531 | 42 | 360 | 5.0 | 15.0 | 0.00 | 0.00 | 0.00 | 54 | 1011.9 |
| 20260502185033 | 42 | 360 | 6.0 | 14.0 | 0.00 | 0.00 | 0.00 | 53 | 1011.9 |
| 20260502184547 | 42 | 360 | 5.0 | 16.0 | 0.00 | 0.00 | 0.00 | 54 | 1011.9 |
| 20260502184031 | 42 | 360 | 9.0 | 16.0 | 0.00 | 0.00 | 0.00 | 54 | 1011.9 |
| 20260502183531 | 42 | 360 | 7.0 | 14.0 | 0.00 | 0.00 | 0.00 | 52 | 1011.9 |
| 20260502183047 | 42 | 360 | 8.0 | 14.0 | 0.00 | 0.00 | 0.00 | 54 | 1011.9 |
| 20260502182531 | 42 | 360 | 8.0 | 14.0 | 0.00 | 0.00 | 0.00 | 54 | 1011.9 |
| 20260502182030 | 43 | 360 | 10.0 | 20.0 | 0.00 | 0.00 | 0.00 | 53 | 1011.8 |
| 20260502181539 | 44 | 360 | 14.0 | 20.0 | 0.00 | 0.00 | 0.00 | 51 | 1011.8 |
| 20260502181029 | 43 | 360 | 11.0 | 17.0 | 0.00 | 0.00 | 0.00 | 55 | 1011.8 |
| 20260502180529 | 42 | 360 | 5.0 | 13.0 | 0.00 | 0.00 | 0.00 | 57 | 1011.9 |
| 20260502164026 | 41 | 360 | 13.0 | 19.0 | 0.00 | 0.00 | 0.00 | 60 | 1011.9 |
| 20260502163528 | 41 | 360 | 10.0 | 16.0 | 0.00 | 0.00 | 0.00 | 58 | 1011.9 |
| 20260502163037 | 41 | 360 | 12.0 | 18.0 | 0.00 | 0.00 | 0.00 | 57 | 1011.8 |
| 20260502162525 | 42 | 360 | 13.0 | 18.0 | 0.00 | 0.00 | 0.00 | 52 | 1011.8 |
| 20260502162029 | 43 | 360 | 6.0 | 16.0 | 0.00 | 0.00 | 0.00 | 53 | 1011.9 |
| 20260502161526 | 43 | 360 | 4.0 | 14.0 | 0.00 | 0.00 | 0.00 | 58 | 1011.9 |
| 20260502161023 | 43 | 360 | 6.0 | 15.0 | 0.00 | 0.00 | 0.00 | 56 | 1012.0 |
| 20260502160525 | 42 | 360 | 4.0 | 19.0 | 0.00 | 0.00 | 0.00 | 59 | 1011.9 |
| 20260502152013 | 40 | 360 | 7.0 | 16.0 | 0.00 | 0.00 | 0.00 | 69 | 1012.2 |
| 20260502151619 | 40 | 360 | 8.0 | 19.0 | 0.00 | 0.00 | 0.00 | 68 | 1012.2 |
| 20260502151012 | 40 | 360 | 4.0 | 18.0 | 0.00 | 0.00 | 0.00 | 71 | 1012.1 |
| 20260502150511 | 40 | 360 | 12.0 | 18.0 | 0.00 | 0.00 | 0.00 | 71 | 1012.1 |
| 20260502130552 | 39 | 360 | 8.0 | 14.0 | 0.00 | 0.00 | 0.00 | 84 | 1011.8 |
| 20260502123548 | 38 | 360 | 7.0 | 12.0 | 0.00 | 0.00 | 0.00 | 86 | 1011.8 |
| 20260502123046 | 38 | 360 | 6.0 | 11.0 | 0.00 | 0.00 | 0.00 | 86 | 1011.9 |
| 20260502122546 | 38 | 360 | 5.0 | 9.0 | 0.00 | 0.00 | 0.00 | 87 | 1011.9 |
| 20260502122044 | 38 | 360 | 3.0 | 11.0 | 0.00 | 0.00 | 0.00 | 87 | 1011.9 |
| 20260502121544 | 37 | 360 | 4.0 | 14.0 | 0.00 | 0.00 | 0.00 | 87 | 1011.9 |
| 20260502121046 | 38 | 360 | 3.0 | 11.0 | 0.00 | 0.00 | 0.00 | 87 | 1011.8 |
| 20260502120543 | 37 | 360 | 6.0 | 11.0 | 0.00 | 0.00 | 0.00 | 87 | 1011.8 |
| 20260502115545 | 37 | 360 | 7.0 | 13.0 | 0.00 | 0.00 | 0.00 | 88 | 1011.8 |
| 20260502115042 | 37 | 360 | 4.0 | 11.0 | 0.00 | 0.00 | 0.00 | 89 | 1011.8 |
| 20260502114554 | 37 | 360 | 4.0 | 11.0 | 0.00 | 0.00 | 0.00 | 90 | 1012.0 |
| 20260502114041 | 37 | 360 | 5.0 | 10.0 | 0.00 | 0.00 | 0.00 | 90 | 1012.0 |
| 20260502113543 | 37 | 360 | 5.0 | 11.0 | 0.00 | 0.00 | 0.00 | 90 | 1011.9 |
| 20260502113043 | 37 | 360 | 4.0 | 11.0 | 0.00 | 0.00 | 0.00 | 91 | 1011.9 |
| 20260502112539 | 37 | 360 | 1.0 | 6.0 | 0.00 | 0.00 | 0.00 | 91 | 1011.9 |
| 20260502112038 | 37 | 360 | 1.0 | 5.0 | 0.00 | 0.00 | 0.00 | 91 | 1011.8 |
| 20260502111538 | 37 | 360 | 0.0 | 5.0 | 0.00 | 0.00 | 0.00 | 91 | 1011.7 |
| 20260502111039 | 37 | 360 | 2.0 | 5.0 | 0.00 | 0.00 | 0.00 | 91 | 1011.7 |
| 20260502110537 | 37 | 360 | 0.0 | 3.0 | 0.00 | 0.00 | 0.00 | 91 | 1011.7 |
| 20260502110039 | 37 | 360 | 0.0 | 3.0 | 0.00 | 0.00 | 0.00 | 91 | 1011.6 |
| 20260502105538 | 37 | 360 | 0.0 | 1.0 | 0.00 | 0.00 | 0.00 | 91 | 1011.7 |
| 20260502105035 | 37 | 360 | 0.0 | 2.0 | 0.00 | 0.00 | 0.00 | 91 | 1011.5 |
| 20260502104547 | 37 | 360 | 0.0 | 4.0 | 0.00 | 0.00 | 0.00 | 91 | 1011.6 |
| 20260502104035 | 36 | 360 | 2.0 | 4.0 | 0.00 | 0.00 | 0.00 | 91 | 1011.6 |
| 20260502103535 | 36 | 360 | 0.0 | 4.0 | 0.00 | 0.00 | 0.00 | 91 | 1011.5 |
| 20260502103036 | 36 | 360 | 2.0 | 4.0 | 0.00 | 0.00 | 0.00 | 91 | 1011.5 |
| 20260502102533 | 36 | 360 | 0.0 | 3.0 | 0.00 | 0.00 | 0.00 | 91 | 1011.4 |
| 20260502102033 | 36 | 360 | 0.0 | 5.0 | 0.00 | 0.00 | 0.00 | 91 | 1011.3 |
| 20260502101547 | 36 | 360 | 1.0 | 5.0 | 0.00 | 0.00 | 0.00 | 91 | 1011.3 |
| 20260502101032 | 36 | 360 | 1.0 | 4.0 | 0.00 | 0.00 | 0.00 | 91 | 1011.3 |
| 20260502100531 | 36 | 360 | 2.0 | 4.0 | 0.00 | 0.00 | 0.00 | 91 | 1011.1 |
| 20260502091527 | 36 | 360 | 2.0 | 8.0 | 0.00 | 0.00 | 0.00 | 91 | 1010.8 |
| 20260502091026 | 36 | 360 | 1.0 | 6.0 | 0.00 | 0.00 | 0.00 | 91 | 1010.7 |
| 20260502090526 | 36 | 360 | 3.0 | 9.0 | 0.00 | 0.00 | 0.00 | 91 | 1010.7 |
| 20260502071518 | 37 | 360 | 1.0 | 6.0 | 0.00 | 0.00 | 0.00 | 91 | 1010.7 |
| 20260502071021 | 37 | 360 | 2.0 | 6.0 | 0.00 | 0.00 | 0.00 | 91 | 1010.6 |
| 20260502070518 | 37 | 360 | 4.0 | 6.0 | 0.00 | 0.00 | 0.00 | 91 | 1010.5 |
| 20260502070022 | 36 | 360 | 2.0 | 5.0 | 0.00 | 0.00 | 0.00 | 91 | 1010.5 |
| 20260502065517 | 36 | 360 | 3.0 | 8.0 | 0.00 | 0.00 | 0.00 | 91 | 1010.5 |
| 20260502065017 | 36 | 360 | 3.0 | 8.0 | 0.00 | 0.00 | 0.00 | 91 | 1010.4 |
| 20260502064517 | 36 | 360 | 2.0 | 6.0 | 0.00 | 0.00 | 0.00 | 91 | 1010.5 |
| 20260502064015 | 36 | 360 | 3.0 | 8.0 | 0.00 | 0.00 | 0.00 | 91 | 1010.4 |
| 20260502063514 | 36 | 360 | 3.0 | 5.0 | 0.00 | 0.00 | 0.00 | 91 | 1010.3 |
| 20260502063016 | 37 | 360 | 2.0 | 6.0 | 0.00 | 0.00 | 0.00 | 91 | 1010.5 |
| 20260502062514 | 37 | 360 | 2.0 | 6.0 | 0.00 | 0.00 | 0.00 | 91 | 1010.6 |
| 20260502062013 | 37 | 360 | 3.0 | 9.0 | 0.00 | 0.00 | 0.00 | 91 | 1010.7 |
| 20260502061513 | 37 | 360 | 6.0 | 9.0 | 0.00 | 0.00 | 0.00 | 91 | 1010.4 |
| 20260502061011 | 37 | 360 | 4.0 | 6.0 | 0.00 | 0.00 | 0.00 | 91 | 1010.4 |
| 20260502060511 | 37 | 360 | 3.0 | 6.0 | 0.00 | 0.00 | 0.00 | 91 | 1010.5 |
| 20260502060013 | 37 | 360 | 3.0 | 6.0 | 0.00 | 0.00 | 0.00 | 91 | 1010.6 |
| 20260502055509 | 37 | 360 | 4.0 | 6.0 | 0.00 | 0.00 | 0.00 | 91 | 1010.6 |
| 20260502055009 | 37 | 360 | 3.0 | 10.0 | 0.00 | 0.00 | 0.00 | 91 | 1010.7 |
| 20260502054508 | 37 | 360 | 5.0 | 10.0 | 0.00 | 0.00 | 0.00 | 91 | 1010.7 |
| 20260502054006 | 37 | 360 | 5.0 | 10.0 | 0.00 | 0.00 | 0.00 | 91 | 1010.8 |
| 20260502053510 | 37 | 360 | 4.0 | 10.0 | 0.00 | 0.00 | 0.00 | 91 | 1010.9 |
| 20260502053005 | 37 | 360 | 5.0 | 9.0 | 0.00 | 0.00 | 0.00 | 91 | 1010.9 |
| 20260502052504 | 37 | 360 | 3.0 | 8.0 | 0.00 | 0.00 | 0.00 | 91 | 1010.9 |
| 20260502052004 | 37 | 360 | 3.0 | 8.0 | 0.00 | 0.00 | 0.00 | 91 | 1010.7 |
| 20260502051505 | 37 | 360 | 3.0 | 8.0 | 0.00 | 0.00 | 0.00 | 91 | 1010.7 |
| 20260502051002 | 37 | 360 | 2.0 | 8.0 | 0.00 | 0.00 | 0.00 | 91 | 1010.6 |
| 20260502050502 | 37 | 360 | 2.0 | 4.0 | 0.00 | 0.00 | 0.00 | 91 | 1010.6 |
| 20260502050007 | 37 | 360 | 2.0 | 6.0 | 0.00 | 0.00 | 0.00 | 91 | 1010.6 |
| 20260502045600 | 37 | 360 | 4.0 | 6.0 | 0.00 | 0.00 | 0.00 | 90 | 1010.5 |
| 20260502045059 | 38 | 360 | 4.0 | 6.0 | 0.00 | 0.00 | 0.00 | 90 | 1010.6 |
| 20260502044600 | 38 | 360 | 3.0 | 6.0 | 0.00 | 0.00 | 0.00 | 90 | 1010.6 |
| 20260502044059 | 38 | 360 | 2.0 | 5.0 | 0.00 | 0.00 | 0.00 | 90 | 1010.6 |
| 20260502043558 | 38 | 360 | 2.0 | 5.0 | 0.00 | 0.00 | 0.00 | 90 | 1010.6 |
| 20260502043104 | 38 | 360 | 4.0 | 6.0 | 0.00 | 0.00 | 0.00 | 90 | 1010.5 |
| 20260502042556 | 38 | 360 | 3.0 | 6.0 | 0.00 | 0.00 | 0.00 | 90 | 1010.6 |
| 20260502042054 | 38 | 360 | 4.0 | 6.0 | 0.00 | 0.00 | 0.00 | 90 | 1010.5 |
| 20260502041555 | 38 | 360 | 3.0 | 6.0 | 0.00 | 0.00 | 0.00 | 89 | 1010.4 |
| 20260502041054 | 38 | 360 | 3.0 | 8.0 | 0.00 | 0.00 | 0.00 | 89 | 1010.4 |
| 20260502040554 | 38 | 360 | 4.0 | 10.0 | 0.00 | 0.00 | 0.00 | 89 | 1010.4 |
| 20260502040057 | 39 | 360 | 5.0 | 10.0 | 0.00 | 0.00 | 0.00 | 89 | 1010.5 |
| 20260502035553 | 39 | 360 | 5.0 | 8.0 | 0.00 | 0.00 | 0.00 | 89 | 1010.4 |
| 20260502035051 | 40 | 360 | 4.0 | 6.0 | 0.00 | 0.00 | 0.00 | 88 | 1010.4 |
| 20260502034551 | 40 | 360 | 3.0 | 4.0 | 0.00 | 0.00 | 0.00 | 89 | 1010.4 |
| 20260502034055 | 40 | 360 | 1.0 | 2.0 | 0.00 | 0.00 | 0.00 | 89 | 1010.3 |
| 20260502033550 | 40 | 360 | 0.0 | 2.0 | 0.00 | 0.00 | 0.00 | 89 | 1010.5 |
| 20260502033050 | 40 | 360 | 0.0 | 3.0 | 0.00 | 0.00 | 0.00 | 89 | 1010.4 |
| 20260502032550 | 41 | 360 | 0.0 | 3.0 | 0.00 | 0.00 | 0.00 | 89 | 1010.3 |
| 20260502032050 | 41 | 360 | 0.0 | 3.0 | 0.00 | 0.00 | 0.00 | 89 | 1010.5 |
| 20260502031550 | 41 | 360 | 1.0 | 3.0 | 0.00 | 0.00 | 0.00 | 89 | 1010.5 |
| 20260502031050 | 41 | 360 | 0.0 | 3.0 | 0.00 | 0.00 | 0.00 | 88 | 1010.5 |
| 20260502030551 | 41 | 360 | 0.0 | 4.0 | 0.00 | 0.00 | 0.00 | 88 | 1010.5 |
| 20260502030052 | 41 | 360 | 2.0 | 4.0 | 0.00 | 0.00 | 0.00 | 88 | 1010.5 |
| 20260502025549 | 41 | 360 | 0.0 | 3.0 | 0.00 | 0.00 | 0.00 | 88 | 1010.6 |
| 20260502025050 | 41 | 360 | 1.0 | 4.0 | 0.00 | 0.00 | 0.00 | 88 | 1010.6 |
| 20260502024549 | 41 | 360 | 1.0 | 4.0 | 0.00 | 0.00 | 0.00 | 88 | 1010.7 |
| 20260502024049 | 41 | 360 | 0.0 | 3.0 | 0.00 | 0.00 | 0.00 | 87 | 1010.7 |
| 20260502023551 | 41 | 360 | 0.0 | 0.0 | 0.00 | 0.00 | 0.00 | 87 | 1010.6 |
| 20260502023101 | 41 | 360 | 0.0 | 0.0 | 0.00 | 0.00 | 0.00 | 87 | 1010.7 |
| 20260502022549 | 41 | 360 | 0.0 | 0.0 | 0.00 | 0.00 | 0.00 | 87 | 1010.6 |
| 20260502022050 | 41 | 360 | 0.0 | 0.0 | 0.00 | 0.00 | 0.00 | 87 | 1010.5 |
| 20260502021547 | 41 | 360 | 0.0 | 0.0 | 0.00 | 0.00 | 0.00 | 87 | 1010.6 |
| 20260502021047 | 41 | 360 | 0.0 | 0.0 | 0.00 | 0.00 | 0.00 | 86 | 1010.7 |
| 20260502020547 | 41 | 360 | 0.0 | 0.0 | 0.00 | 0.00 | 0.00 | 86 | 1010.7 |
| 20260502015546 | 41 | 360 | 0.0 | 0.0 | 0.00 | 0.00 | 0.00 | 85 | 1010.6 |
| 20260502015046 | 42 | 360 | 0.0 | 0.0 | 0.00 | 0.00 | 0.00 | 85 | 1010.6 |
| 20260502014549 | 42 | 360 | 0.0 | 0.0 | 0.00 | 0.00 | 0.00 | 84 | 1010.7 |
| 20260502014045 | 42 | 360 | 0.0 | 0.0 | 0.00 | 0.00 | 0.00 | 84 | 1010.7 |
| 20260502013545 | 42 | 360 | 0.0 | 0.0 | 0.00 | 0.00 | 0.00 | 83 | 1010.8 |
| 20260502013059 | 42 | 360 | 0.0 | 0.0 | 0.00 | 0.00 | 0.00 | 83 | 1010.7 |
| 20260502012546 | 42 | 360 | 0.0 | 0.0 | 0.00 | 0.00 | 0.00 | 83 | 1010.6 |
| 20260502012046 | 42 | 360 | 0.0 | 2.0 | 0.00 | 0.00 | 0.00 | 82 | 1010.7 |
| 20260502011546 | 42 | 360 | 0.0 | 2.0 | 0.00 | 0.00 | 0.00 | 81 | 1010.6 |
| 20260502011045 | 42 | 360 | 0.0 | 0.0 | 0.00 | 0.00 | 0.00 | 80 | 1010.6 |
| 20260502010545 | 43 | 360 | 0.0 | 2.0 | 0.00 | 0.00 | 0.00 | 79 | 1010.5 |
| 20260502010045 | 43 | 360 | 0.0 | 2.0 | 0.00 | 0.00 | 0.00 | 78 | 1010.6 |
| 20260502005545 | 43 | 360 | 0.0 | 2.0 | 0.00 | 0.00 | 0.00 | 77 | 1010.6 |
| 20260502005048 | 43 | 360 | 0.0 | 3.0 | 0.00 | 0.00 | 0.00 | 76 | 1010.7 |
| 20260502004555 | 44 | 360 | 0.0 | 4.0 | 0.00 | 0.00 | 0.00 | 75 | 1010.6 |
| 20260502004045 | 44 | 360 | 0.0 | 4.0 | 0.00 | 0.00 | 0.00 | 73 | 1010.5 |
| 20260502003545 | 44 | 360 | 0.0 | 3.0 | 0.00 | 0.00 | 0.00 | 71 | 1010.6 |
| 20260502003043 | 45 | 360 | 0.0 | 4.0 | 0.00 | 0.00 | 0.00 | 69 | 1010.5 |
| 20260502002543 | 45 | 360 | 1.0 | 4.0 | 0.00 | 0.00 | 0.00 | 67 | 1010.4 |
| 20260502002044 | 45 | 360 | 0.0 | 2.0 | 0.00 | 0.00 | 0.00 | 65 | 1010.3 |
| 20260502001602 | 45 | 360 | 0.0 | 5.0 | 0.00 | 0.00 | 0.00 | 63 | 1010.2 |
| 20260502001043 | 46 | 360 | 0.0 | 5.0 | 0.00 | 0.00 | 0.00 | 62 | 1010.1 |
| 20260502000542 | 46 | 360 | 2.0 | 5.0 | 0.00 | 0.00 | 0.00 | 60 | 1009.9 |
| 20260502000041 | 46 | 360 | 1.0 | 3.0 | 0.00 | 0.00 | 0.00 | 59 | 1009.8 |
| 20260501235542 | 46 | 360 | 1.0 | 3.0 | 0.00 | 0.00 | 0.00 | 58 | 1009.8 |
| 20260501235041 | 46 | 360 | 0.0 | 3.0 | 0.00 | 0.00 | 0.00 | 59 | 1009.8 |
| 20260501234541 | 46 | 360 | 0.0 | 2.0 | 0.00 | 0.00 | 0.00 | 58 | 1009.7 |
| 20260501234041 | 46 | 360 | 1.0 | 3.0 | 0.00 | 0.00 | 0.00 | 57 | 1009.7 |
| 20260501233542 | 47 | 360 | 0.0 | 3.0 | 0.00 | 0.00 | 0.00 | 56 | 1009.7 |
| 20260501233049 | 47 | 360 | 0.0 | 3.0 | 0.00 | 0.00 | 0.00 | 56 | 1009.7 |
| 20260501232544 | 47 | 360 | 0.0 | 3.0 | 0.00 | 0.00 | 0.00 | 55 | 1009.7 |
| 20260501232040 | 47 | 360 | 0.0 | 3.0 | 0.00 | 0.00 | 0.00 | 55 | 1009.9 |
| 20260501231541 | 47 | 360 | 0.0 | 3.0 | 0.00 | 0.00 | 0.00 | 55 | 1009.8 |
| 20260501231041 | 47 | 360 | 1.0 | 2.0 | 0.00 | 0.00 | 0.00 | 55 | 1009.9 |
| 20260501230540 | 47 | 360 | 0.0 | 4.0 | 0.00 | 0.00 | 0.00 | 53 | 1009.8 |
| 20260501230040 | 47 | 360 | 1.0 | 10.0 | 0.00 | 0.00 | 0.00 | 55 | 1009.8 |
| 20260501225539 | 47 | 360 | 4.0 | 10.0 | 0.00 | 0.00 | 0.00 | 54 | 1009.9 |
| 20260501225039 | 48 | 360 | 2.0 | 11.0 | 0.00 | 0.00 | 0.00 | 53 | 1009.9 |
| 20260501224540 | 48 | 360 | 2.0 | 9.0 | 0.00 | 0.00 | 0.00 | 52 | 1009.9 |
| 20260501224039 | 48 | 360 | 2.0 | 9.0 | 0.00 | 0.00 | 0.00 | 51 | 1009.9 |
| 20260501223541 | 48 | 360 | 1.0 | 4.0 | 0.00 | 0.00 | 0.00 | 51 | 1009.8 |
| 20260501223040 | 48 | 360 | 0.0 | 4.0 | 0.00 | 0.00 | 0.00 | 50 | 1009.9 |
| 20260501222538 | 48 | 360 | 0.0 | 5.0 | 0.00 | 0.00 | 0.00 | 49 | 1009.9 |
| 20260501222038 | 49 | 360 | 1.0 | 8.0 | 0.00 | 0.00 | 0.00 | 49 | 1009.9 |
| 20260501221539 | 49 | 360 | 2.0 | 8.0 | 0.00 | 0.00 | 0.00 | 48 | 1009.9 |
| 20260501221037 | 49 | 360 | 1.0 | 5.0 | 0.00 | 0.00 | 0.00 | 48 | 1010.0 |
| 20260501220537 | 50 | 360 | 1.0 | 5.0 | 0.00 | 0.00 | 0.00 | 48 | 1009.9 |
| 20260501220108 | 50 | 360 | 1.0 | 4.0 | 0.00 | 0.00 | 0.00 | 46 | 1009.9 |
| 20260501215537 | 50 | 360 | 1.0 | 6.0 | 0.00 | 0.00 | 0.00 | 45 | 1009.8 |
| 20260501215038 | 50 | 360 | 1.0 | 11.0 | 0.00 | 0.00 | 0.00 | 46 | 1009.7 |
| 20260501214539 | 50 | 360 | 5.0 | 11.0 | 0.00 | 0.00 | 0.00 | 43 | 1009.8 |
| 20260501214037 | 50 | 360 | 2.0 | 8.0 | 0.00 | 0.00 | 0.00 | 45 | 1009.8 |
| 20260501213535 | 50 | 360 | 1.0 | 8.0 | 0.00 | 0.00 | 0.00 | 45 | 1009.7 |